Location: Unspecified
(41.1850°N, 73.2650°W)
Time: 22:20:19
(UTC+00:00)

ARIANE 5 R/B - Pass Details

Date: 14 December 2025
Orbit: 747 x 792 km, 98.8° (Epoch: 14 January)

Event Time Altitude Azimuth Distance (km) Brightness Sun altitude
Rises 22:08:34 0° 153° (SSE) 3,208 5.7 -8.1°
Reaches altitude 10° 22:10:52 10° 149° (SSE) 2,293 4.9 -8.5°
Maximum altitude 22:15:49 57° 72° (ENE) 909 2.6 -9.4°
Drops below altitude 10° 22:20:51 10° 355° (N) 2,337 4.8 -10.3°
Sets 22:23:13 0° 351° (N) 3,276 5.6 -10.7°
